Regional Weather Roundup
Issued by NWS State College, PA

Home | Current Version | Previous Version | Graphics & Text | Print | Product List | Glossary Off
Versions: 1 2 3 4 5 6 7 8 9 10 11 12 13 14 15 16 17 18 19 20 21 22 23 24 25 26 27 28 29 30 31 32 33 34 35 36 37 38 39 40 41 42 43 44 45 46 47 48 49 50

000
ASUS41 KCTP 231910
RWRCTP

REGIONAL WEATHER ROUNDUP
NATIONAL WEATHER SERVICE STATE COLLEGE PA
200 PM EST FRI FEB 23 2018

Note: "fair" indicates few or no clouds below 12,000 feet with no
significant weather and/or obstructions to visibility.

* = STATION THAT DOES NOT REPORT PRECIPITATION /E.G. RAIN...SNOW...ETC/
    THUNDER OR FOG.

PAZ002>004-007>009-013>016-020>023-029>032-232000-
WESTERN PENNSYLVANIA

CITY           SKY/WX    TMP DP  RH WIND       PRES   REMARKS
ERIE           CLOUDY    55  49  80 S18G31    30.07F
MEADVILLE      LGT RAIN  50  50 100 S8        30.11F FOG
FRANKLIN*      CLOUDY    48  47  96 S10       30.15F FOG
NEW CASTLE     CLOUDY    56  56 100 VRB7      30.15F
BEAVER COUNTY  NOT AVBL
BUTLER*        CLOUDY    54  53  97 S8        30.18F
PITTSBURGH INT CLOUDY    62  58  86 SW15G23   30.17F
PITTSBURGH     CLOUDY    62  56  80 SW16G32   30.18F
INDIANA*       CLOUDY    48  48 100 SE5       30.25F
LATROBE        CLOUDY    57  57 100 S3        30.22F
WASHINGTON CO* CLOUDY    64  58  80 SW15G23   30.22F
$$

PAZ004>006-010>012-017>019-024>028-033>037-041-042-045-046-049>053-232000-
CENTRAL PENNSYLVANIA

CITY           SKY/WX    TMP DP  RH WIND       PRES   REMARKS
BRADFORD       LGT RAIN  39  38  96 S10G18    30.17F FOG
DUBOIS         CLOUDY    40  38  93 SE8       30.20S
CLEARFIELD     LGT RAIN  39  38  96 VRB3      30.26F FOG
JOHNSTOWN      CLOUDY    40  38  93 S10       30.24F
ALTOONA        LGT RAIN  39  37  92 S9        30.32F
STATE COLLEGE  RAIN      37  37 100 S6        30.31F
WILLIAMSPORT   RAIN      39  37  92 NE12G28   30.34F FOG
SELINSGROVE    CLOUDY    39  36  89 S10       30.39F
FT INDIANTOWN  DRIZZLE   39  39 100 SE8       30.40F FOG
CAPITAL CITY   CLOUDY    41  40  96 E6        30.40F FOG
HARRISBURG     DRZL/FOG  41  39  93 SE8       30.40F VSB 1
YORK           CLOUDY    42  41  96 SE9       30.39F
$$

PAZ038>040-043-044-047-048-054-055-060>062-067>071-232000-
EASTERN PENNSYLVANIA

CITY           SKY/WX    TMP DP  RH WIND       PRES   REMARKS
SCRANTON       LGT RAIN  38  34  85 S6        30.35F
MOUNT POCONO   FRZ RAIN  31  31 100 SE12      30.36F VSB 1/4
ALLENTOWN      CLOUDY    39  35  86 SE5       30.44F FOG
QUAKERTOWN*    CLOUDY    37  37 100 E6        30.44F FOG
READING        CLOUDY    40  40 100 VRB3      30.42F FOG
LANCASTER      CLOUDY    41  39  93 SE7       30.42F FOG
COATESVILLE    FOG       39  39 100 VRB6      30.42F VSB 1
POTTSTOWN      CLOUDY    38  38 100 E5        30.45F FOG
BLUE BELL      CLOUDY    37  37 100 E3        30.46F
DOYLESTOWN     CLOUDY    39  38  96 CALM      30.43F FOG
WILLOW GROVE   NOT AVBL
NORTH PHILA    FOG       43  41  93 E8        30.46F VSB 1
PHILADELPHIA   DRIZZLE   43  41  93 E7        30.45F FOG
$$




USA.gov is the U.S. government's official web portal to all federal, state and local government web resources and services.